| time (UTC) | temp F | wind direction | speed knots | gust knots | rain 1hr in | rain 24hr in | rain mn in | humidity % | barometer mb |
| 20260507100004 | 55 | 343 | 1.7 | 3.5 | 0.00 | 0.04 | 0.01 | 60 | 1015.0 |
| 20260507095004 | 53 | 332 | 1.7 | 3.5 | 0.00 | 0.04 | 0.01 | 62 | 1014.7 |
| 20260507094003 | 54 | 126 | 2.6 | 3.5 | 0.00 | 0.04 | 0.01 | 63 | 1014.7 |
| 20260507093003 | 53 | 308 | 1.7 | 3.5 | 0.00 | 0.04 | 0.01 | 67 | 1014.8 |
| 20260507092214 | 53 | 192 | 1.7 | 5.2 | 0.00 | 0.04 | 0.01 | 73 | 1014.6 |
| 20260507091003 | 51 | 266 | 1.7 | 6.1 | 0.00 | 0.04 | 0.01 | 90 | 1014.6 |
| 20260507090004 | 50 | 163 | 0.9 | 3.5 | 0.00 | 0.04 | 0.01 | 95 | 1014.7 |
| 20260507085003 | 47 | 117 | 0.9 | 3.5 | 0.00 | 0.04 | 0.01 | 95 | 1014.4 |
| 20260507084003 | 46 | 107 | 3.5 | 3.5 | 0.00 | 0.04 | 0.01 | 94 | 1014.4 |
| 20260507083004 | 46 | 163 | 1.7 | 3.5 | 0.00 | 0.04 | 0.01 | 94 | 1014.5 |
| 20260507082003 | 42 | 84 | 1.7 | 4.3 | 0.00 | 0.04 | 0.01 | 97 | 1014.5 |
| 20260507081004 | 40 | 142 | 1.7 | 3.5 | 0.00 | 0.04 | 0.01 | 96 | 1014.4 |
| 20260507080004 | 39 | 89 | 1.7 | 3.5 | 0.00 | 0.04 | 0.01 | 96 | 1014.4 |
| 20260507075003 | 39 | 101 | 1.7 | 5.2 | 0.00 | 0.04 | 0.01 | 96 | 1014.4 |
| 20260507074003 | 39 | 151 | 1.7 | 2.6 | 0.00 | 0.04 | 0.01 | 96 | 1014.3 |
| 20260507073003 | 39 | 114 | 0.9 | 2.6 | 0.00 | 0.04 | 0.01 | 95 | 1014.4 |
| 20260507072003 | 38 | 109 | 0.9 | 3.5 | 0.00 | 0.04 | 0.01 | 95 | 1014.4 |
| 20260507071004 | 38 | 109 | 1.7 | 3.5 | 0.00 | 0.04 | 0.01 | 95 | 1014.2 |
| 20260507070218 | 38 | 148 | 2.6 | 5.2 | 0.00 | 0.04 | 0.01 | 95 | 1014.4 |
| 20260507065004 | 38 | 123 | 3.5 | 6.1 | 0.00 | 0.04 | 0.01 | 95 | 1014.2 |
| 20260507064003 | 38 | 69 | 3.5 | 5.2 | 0.00 | 0.04 | 0.01 | 95 | 1014.1 |
| 20260507063004 | 38 | 130 | 1.7 | 5.2 | 0.00 | 0.04 | 0.01 | 95 | 1014.2 |
| 20260507062003 | 38 | 143 | 1.7 | 3.5 | 0.00 | 0.04 | 0.01 | 95 | 1014.3 |
| 20260507061003 | 38 | 123 | 1.7 | 3.5 | 0.00 | 0.04 | 0.01 | 95 | 1014.3 |
| 20260507060213 | 37 | 145 | 0.9 | 4.3 | 0.00 | 0.04 | 0.01 | 95 | 1014.2 |
| 20260507055003 | 37 | 112 | 1.7 | 3.5 | 0.00 | 0.04 | 0.01 | 94 | 1014.2 |
| 20260507054215 | 37 | 169 | 2.6 | 3.5 | 0.00 | 0.04 | 0.01 | 94 | 1014.2 |
| 20260507053005 | 37 | 130 | 1.7 | 3.5 | 0.00 | 0.04 | 0.01 | 94 | 1014.2 |
| 20260507052003 | 37 | 80 | 1.7 | 7.0 | 0.00 | 0.04 | 0.01 | 94 | 1014.2 |
| 20260507051003 | 38 | 121 | 2.6 | 4.3 | 0.00 | 0.04 | 0.01 | 94 | 1014.1 |
| 20260507050004 | 38 | 146 | 1.7 | 6.1 | 0.01 | 0.04 | 0.01 | 94 | 1014.3 |
| 20260507045003 | 38 | 121 | 3.5 | 7.8 | 0.01 | 0.04 | 0.01 | 94 | 1014.2 |
| 20260507044003 | 38 | 101 | 3.5 | 4.3 | 0.01 | 0.04 | 0.01 | 94 | 1014.3 |
| 20260507043217 | 38 | 77 | 1.7 | 4.3 | 0.01 | 0.04 | 0.01 | 94 | 1014.6 |
| 20260507042003 | 38 | 219 | 0.0 | 3.5 | 0.01 | 0.04 | 0.01 | 94 | 1014.5 |
| 20260507041004 | 38 | 232 | 1.7 | 3.5 | 0.01 | 0.04 | 0.01 | 94 | 1014.3 |
| 20260507040004 | 38 | 79 | 1.7 | 7.0 | 0.00 | 0.02 | 0.00 | 94 | 1014.3 |
| 20260507035003 | 38 | 89 | 3.5 | 6.1 | 0.00 | 0.02 | 0.00 | 94 | 1014.3 |
| 20260507034004 | 38 | 120 | 3.5 | 7.8 | 0.00 | 0.02 | 0.00 | 94 | 1014.3 |
| 20260507033004 | 38 | 170 | 1.7 | 7.8 | 0.00 | 0.02 | 0.00 | 94 | 1014.3 |
| 20260507032003 | 38 | 124 | 3.5 | 8.7 | 0.00 | 0.02 | 0.00 | 94 | 1014.2 |
| 20260507031003 | 38 | 73 | 2.6 | 4.3 | 0.00 | 0.02 | 0.00 | 94 | 1014.3 |
| 20260507030004 | 38 | 247 | 1.7 | 6.1 | 0.00 | 0.02 | 0.00 | 94 | 1014.5 |
| 20260507025003 | 38 | 251 | 2.6 | 9.6 | 0.00 | 0.02 | 0.00 | 94 | 1014.6 |
| 20260507024003 | 38 | 96 | 1.7 | 6.1 | 0.00 | 0.02 | 0.00 | 93 | 1014.7 |
| 20260507023003 | 39 | 83 | 2.6 | 7.0 | 0.00 | 0.02 | 0.00 | 93 | 1014.7 |
| 20260507022003 | 39 | 111 | 1.7 | 5.2 | 0.00 | 0.02 | 0.00 | 93 | 1015.0 |
| 20260507021004 | 39 | 150 | 1.7 | 4.3 | 0.00 | 0.02 | 0.00 | 93 | 1014.7 |
| 20260507020216 | 39 | 182 | 2.6 | 3.5 | 0.00 | 0.02 | 0.00 | 93 | 1014.8 |
| 20260507015004 | 39 | 198 | 2.6 | 7.0 | 0.00 | 0.02 | 0.00 | 92 | 1014.7 |
| 20260507014003 | 39 | 4 | 3.5 | 7.0 | 0.00 | 0.02 | 0.00 | 92 | 1014.8 |
| 20260507013003 | 39 | 76 | 1.7 | 6.1 | 0.00 | 0.02 | 0.00 | 92 | 1014.9 |
| 20260507012003 | 39 | 125 | 1.7 | 6.1 | 0.00 | 0.02 | 0.00 | 91 | 1015.3 |
| 20260507011003 | 39 | 223 | 1.7 | 5.2 | 0.00 | 0.02 | 0.00 | 91 | 1015.2 |
| 20260507010003 | 39 | 258 | 2.6 | 5.2 | 0.00 | 0.02 | 0.00 | 91 | 1015.3 |
| 20260507005004 | 39 | 260 | 1.7 | 5.2 | 0.00 | 0.02 | 0.00 | 90 | 1015.3 |
| 20260507004003 | 38 | 155 | 1.7 | 5.2 | 0.00 | 0.02 | 0.00 | 89 | 1015.6 |
| 20260507003003 | 37 | 243 | 1.7 | 3.5 | 0.00 | 0.02 | 0.00 | 88 | 1015.4 |
| 20260507002215 | 37 | 229 | 1.7 | 2.6 | 0.00 | 0.02 | 0.00 | 87 | 1015.3 |
| 20260507001004 | 37 | 234 | 0.9 | 1.7 | 0.00 | 0.02 | 0.00 | 86 | 1015.6 |
| 20260507000004 | 37 | 261 | 0.9 | 3.5 | 0.00 | 0.02 | 0.00 | 86 | 1015.5 |
| 20260506235004 | 37 | 162 | 0.9 | 1.7 | 0.00 | 0.02 | 0.00 | 85 | 1015.8 |
| 20260506234003 | 38 | 208 | 0.9 | 1.7 | 0.00 | 0.02 | 0.00 | 85 | 1015.8 |
| 20260506233004 | 38 | 113 | 0.0 | 1.7 | 0.00 | 0.02 | 0.00 | 86 | 1015.8 |
| 20260506232004 | 39 | 83 | 0.0 | 1.7 | 0.00 | 0.02 | 0.00 | 86 | 1015.8 |
| 20260506231003 | 39 | 45 | 0.9 | 1.7 | 0.00 | 0.02 | 0.00 | 86 | 1016.0 |
| 20260506230003 | 39 | 40 | 0.9 | 1.7 | 0.00 | 0.02 | 0.00 | 86 | 1015.9 |
| 20260506225213 | 39 | 42 | 0.9 | 1.7 | 0.00 | 0.02 | 0.00 | 86 | 1015.9 |
| 20260506224003 | 39 | 35 | 0.0 | 1.7 | 0.00 | 0.02 | 0.00 | 86 | 1016.0 |
| 20260506223004 | 38 | 41 | 0.0 | 1.7 | 0.00 | 0.02 | 0.00 | 85 | 1015.9 |
| 20260506222216 | 38 | 0 | 0.0 | 0.0 | 0.00 | 0.02 | 0.00 | 85 | 1016.0 |
| 20260506221003 | 39 | 45 | 0.0 | 0.9 | 0.00 | 0.02 | 0.00 | 85 | 1016.1 |
| 20260506220004 | 40 | 45 | 0.0 | 1.7 | 0.00 | 0.02 | 0.00 | 84 | 1016.2 |
| 20260506215003 | 40 | 270 | 0.0 | 0.9 | 0.00 | 0.02 | 0.02 | 83 | 1016.0 |
| 20260506214003 | 40 | 0 | 0.0 | 0.0 | 0.00 | 0.02 | 0.02 | 83 | 1016.2 |
| 20260506213216 | 40 | 0 | 0.0 | 0.0 | 0.00 | 0.02 | 0.02 | 84 | 1016.2 |
| 20260506212003 | 40 | 180 | 0.0 | 0.9 | 0.00 | 0.02 | 0.02 | 85 | 1016.3 |
| 20260506211218 | 40 | 0 | 0.0 | 0.0 | 0.00 | 0.02 | 0.02 | 86 | 1016.5 |
| 20260506210004 | 40 | 276 | 0.0 | 1.7 | 0.00 | 0.02 | 0.02 | 86 | 1016.2 |
| 20260506205004 | 40 | 277 | 0.9 | 1.7 | 0.00 | 0.02 | 0.02 | 85 | 1016.2 |
| 20260506204003 | 41 | 274 | 0.9 | 1.7 | 0.00 | 0.02 | 0.02 | 85 | 1016.1 |
| 20260506203003 | 41 | 225 | 0.0 | 1.7 | 0.00 | 0.02 | 0.02 | 85 | 1016.3 |
| 20260506202004 | 41 | 183 | 1.7 | 1.7 | 0.00 | 0.02 | 0.02 | 84 | 1016.1 |
| 20260506201003 | 41 | 201 | 0.9 | 1.7 | 0.00 | 0.02 | 0.02 | 83 | 1016.2 |
| 20260506200003 | 41 | 213 | 0.9 | 1.7 | 0.00 | 0.02 | 0.02 | 83 | 1016.0 |
| 20260506195003 | 41 | 215 | 1.7 | 2.6 | 0.00 | 0.02 | 0.02 | 82 | 1016.0 |
| 20260506194003 | 41 | 178 | 0.9 | 1.7 | 0.00 | 0.02 | 0.02 | 82 | 1016.1 |
| 20260506193003 | 41 | 187 | 0.9 | 1.7 | 0.00 | 0.02 | 0.02 | 83 | 1016.1 |
| 20260506192003 | 42 | 180 | 1.7 | 1.7 | 0.00 | 0.02 | 0.02 | 83 | 1016.1 |
| 20260506191003 | 42 | 190 | 0.9 | 1.7 | 0.00 | 0.02 | 0.02 | 83 | 1015.8 |
| 20260506190004 | 42 | 180 | 0.9 | 1.7 | 0.00 | 0.02 | 0.02 | 84 | 1015.9 |
| 20260506185003 | 42 | 184 | 0.9 | 1.7 | 0.00 | 0.04 | 0.02 | 83 | 1016.0 |
| 20260506184003 | 42 | 225 | 0.0 | 0.9 | 0.00 | 0.04 | 0.02 | 84 | 1015.9 |
| 20260506183005 | 42 | 90 | 0.0 | 0.9 | 0.00 | 0.04 | 0.02 | 84 | 1015.8 |
| 20260506182004 | 42 | 0 | 0.0 | 0.0 | 0.00 | 0.04 | 0.02 | 85 | 1015.8 |
| 20260506181004 | 42 | 225 | 0.0 | 0.9 | 0.01 | 0.05 | 0.02 | 85 | 1016.0 |
| 20260506180004 | 42 | 225 | 0.0 | 1.7 | 0.01 | 0.06 | 0.02 | 85 | 1015.9 |
| 20260506175003 | 43 | 225 | 0.9 | 1.7 | 0.01 | 0.08 | 0.02 | 85 | 1015.9 |
| 20260506174003 | 43 | 217 | 0.0 | 1.7 | 0.01 | 0.09 | 0.02 | 85 | 1015.9 |
| 20260506173004 | 43 | 204 | 0.9 | 1.7 | 0.01 | 0.09 | 0.02 | 84 | 1016.0 |
| 20260506172214 | 44 | 266 | 0.0 | 0.9 | 0.02 | 0.09 | 0.02 | 83 | 1016.1 |
| 20260506171003 | 44 | 315 | 0.0 | 0.9 | 0.01 | 0.08 | 0.01 | 84 | 1016.2 |
| 20260506170004 | 43 | 208 | 0.0 | 1.7 | 0.01 | 0.08 | 0.01 | 84 | 1016.1 |
| 20260506165003 | 43 | 215 | 0.9 | 1.7 | 0.01 | 0.08 | 0.01 | 81 | 1016.1 |
| 20260506164003 | 44 | 204 | 0.0 | 1.7 | 0.01 | 0.08 | 0.01 | 76 | 1016.0 |
| 20260506163003 | 46 | 191 | 0.9 | 1.7 | 0.01 | 0.08 | 0.01 | 68 | 1016.0 |
| 20260506162004 | 47 | 299 | 0.0 | 1.7 | 0.00 | 0.07 | 0.00 | 62 | 1016.1 |
| 20260506161004 | 49 | 312 | 0.0 | 1.7 | 0.00 | 0.07 | 0.00 | 60 | 1015.9 |
| 20260506160217 | 49 | 317 | 0.0 | 2.6 | 0.00 | 0.07 | 0.00 | 59 | 1016.0 |
| 20260506155003 | 49 | 323 | 1.7 | 2.6 | 0.00 | 0.07 | 0.00 | 59 | 1016.0 |
| 20260506154214 | 50 | 344 | 1.7 | 2.6 | 0.00 | 0.07 | 0.00 | 60 | 1016.1 |
| 20260506153003 | 49 | 345 | 0.0 | 2.6 | 0.00 | 0.07 | 0.00 | 59 | 1016.4 |
| 20260506152003 | 50 | 331 | 0.9 | 2.6 | 0.00 | 0.07 | 0.00 | 55 | 1016.1 |
| 20260506151003 | 51 | 280 | 0.9 | 3.5 | 0.00 | 0.07 | 0.00 | 55 | 1016.3 |
| 20260506150004 | 52 | 323 | 0.9 | 1.7 | 0.00 | 0.07 | 0.00 | 57 | 1016.4 |
| 20260506145003 | 51 | 121 | 0.9 | 1.7 | 0.00 | 0.07 | 0.00 | 59 | 1016.6 |
| 20260506144004 | 52 | 177 | 0.9 | 2.6 | 0.00 | 0.07 | 0.00 | 57 | 1016.5 |
| 20260506143004 | 52 | 41 | 0.9 | 1.7 | 0.00 | 0.07 | 0.00 | 60 | 1016.4 |
| 20260506142004 | 51 | 243 | 1.7 | 1.7 | 0.00 | 0.07 | 0.00 | 60 | 1016.5 |
| 20260506141003 | 50 | 246 | 0.9 | 1.7 | 0.00 | 0.07 | 0.00 | 63 | 1016.4 |
| 20260506140004 | 49 | 231 | 0.0 | 1.7 | 0.00 | 0.07 | 0.00 | 63 | 1016.5 |
| 20260506135003 | 48 | 262 | 0.0 | 1.7 | 0.00 | 0.07 | 0.00 | 62 | 1016.6 |
| 20260506134215 | 49 | 300 | 1.7 | 1.7 | 0.00 | 0.07 | 0.00 | 60 | 1016.9 |
| 20260506133004 | 48 | 324 | 0.9 | 1.7 | 0.00 | 0.07 | 0.00 | 60 | 1016.7 |
| 20260506132003 | 48 | 317 | 0.0 | 2.6 | 0.00 | 0.07 | 0.00 | 61 | 1016.6 |
| 20260506131004 | 48 | 314 | 0.9 | 2.6 | 0.00 | 0.07 | 0.00 | 60 | 1016.9 |
| 20260506130004 | 48 | 316 | 1.7 | 2.6 | 0.00 | 0.07 | 0.00 | 61 | 1016.6 |
| 20260506125215 | 48 | 313 | 1.7 | 2.6 | 0.00 | 0.07 | 0.00 | 61 | 1016.8 |
| 20260506124004 | 47 | 332 | 1.7 | 1.7 | 0.00 | 0.07 | 0.00 | 61 | 1017.0 |
| 20260506123004 | 47 | 323 | 0.9 | 3.5 | 0.00 | 0.07 | 0.00 | 61 | 1016.7 |
| 20260506122003 | 47 | 322 | 0.9 | 1.7 | 0.00 | 0.07 | 0.00 | 62 | 1017.0 |
| 20260506121003 | 47 | 309 | 0.9 | 2.6 | 0.00 | 0.07 | 0.00 | 64 | 1016.9 |
| 20260506120004 | 47 | 324 | 1.7 | 2.6 | 0.00 | 0.07 | 0.00 | 63 | 1016.9 |
| 20260506115003 | 47 | 315 | 1.7 | 2.6 | 0.00 | 0.07 | 0.00 | 62 | 1017.1 |
| 20260506114004 | 47 | 312 | 1.7 | 3.5 | 0.00 | 0.07 | 0.00 | 62 | 1017.1 |
| 20260506113003 | 47 | 316 | 1.7 | 1.7 | 0.00 | 0.07 | 0.00 | 65 | 1017.0 |
| 20260506112003 | 45 | 316 | 0.9 | 2.6 | 0.00 | 0.07 | 0.00 | 68 | 1017.3 |
| 20260506111003 | 46 | 299 | 1.7 | 2.6 | 0.00 | 0.07 | 0.00 | 63 | 1017.3 |
| 20260506110003 | 48 | 318 | 0.9 | 2.6 | 0.00 | 0.07 | 0.00 | 61 | 1017.2 |
| 20260506105003 | 48 | 326 | 1.7 | 3.5 | 0.00 | 0.07 | 0.00 | 63 | 1017.1 |
| 20260506104004 | 48 | 294 | 0.9 | 2.6 | 0.00 | 0.07 | 0.00 | 65 | 1017.1 |
| 20260506103003 | 47 | 244 | 0.9 | 3.5 | 0.00 | 0.07 | 0.00 | 64 | 1017.1 |
| 20260506102003 | 46 | 326 | 1.7 | 3.5 | 0.00 | 0.07 | 0.00 | 69 | 1016.9 |
| 20260506101003 | 44 | 303 | 1.7 | 2.6 | 0.00 | 0.07 | 0.00 | 75 | 1017.0 |